Andrews, TX

6:11 AM CST on December 11, 2019 (GMT -0600)
Andrews

Weather History for KE11 - October, 2019

Change the Weather History Date:

Sunday, October 20, 2019

  Actual Average (WUND) Record (WUND)
Temperature  
Mean Temperature 68 °F -  
Max Temperature 84 °F - - (-1)
Min Temperature 52 °F - - (-1)
Cooling Degree Days 3    
Growing Degree Days 18 (Base 50)    
Moisture  
Dew Point 34 °F    
Average Humidity 31    
Maximum Humidity 49    
Minimum Humidity 17    
Precipitation  
Precipitation 0.00 in - - ()
Sea Level Pressure  
Sea Level Pressure 29.80 in    
Wind  
Wind Speed 9 mph ()    
Max Wind Speed 28 mph    
Max Gust Speed 37 mph    
Visibility 10.0 miles    
Events      
Averages and records for this station are not official NWS values.
T = Trace of Precipitation, MM = Missing Value Source: Averaged Metar Reports

Daily Weather History Graph

Daily Weather History Graph

Search for Another Location

Airport or City:

Astronomy

Oct. 20, 2019 Rise Set
Actual Time 7:57 AM CDT 7:11 PM CDT
Civil Twilight 7:32 AM CDT 7:36 PM CDT
Nautical Twilight 7:03 AM CDT 8:05 PM CDT
Astronomical Twilight 6:35 AM CDT 8:33 PM CDT
Moon No Moon Rise 2:13 PM CDT (10/20)
Length of Visible Light 12h 04m
Length of Day
11h 14m
Waning Gibbous, 59% of the Moon is Illuminated
Oct 20
Waning Gibbous
Oct 21
Last Quarter
Oct 27
New
Nov 4
First Quarter
Nov 12
Full

Hourly Weather History & Observations

Time (CDT) Temp. Dew Point Humidity Pressure Visibility Wind Dir Wind Speed Gust Speed Precip Events Conditions
12:15 AM 58.1 °F 33.3 °F 39% 29.89 in 10.0 mi South 4.6 mph - N/A   Clear
12:35 AM 55.8 °F 34.0 °F 44% 29.89 in 10.0 mi SSW 5.8 mph - N/A   Clear
12:55 AM 55.6 °F 33.4 °F 43% 29.88 in 10.0 mi SSW 5.8 mph - N/A   Clear
1:15 AM 55.0 °F 33.1 °F 43% 29.87 in 10.0 mi SW 3.5 mph - N/A   Clear
1:35 AM 53.4 °F 33.4 °F 47% 29.87 in 10.0 mi SSW 3.5 mph - N/A   Clear
1:55 AM 55.2 °F 32.0 °F 41% 29.87 in 10.0 mi SSW 5.8 mph - N/A   Clear
2:15 AM 55.0 °F 32.0 °F 42% 29.86 in 10.0 mi South 6.9 mph - N/A   Clear
2:35 AM 56.5 °F 31.6 °F 39% 29.86 in 10.0 mi SSW 5.8 mph - N/A   Clear
2:55 AM 56.5 °F 30.2 °F 37% 29.86 in 10.0 mi SSW 6.9 mph - N/A   Clear
3:15 AM 57.0 °F 29.7 °F 35% 29.85 in 10.0 mi SSW 6.9 mph - N/A   Clear
3:35 AM 57.6 °F 28.8 °F 33% 29.84 in 10.0 mi SSW 8.1 mph - N/A   Clear
3:55 AM 56.7 °F 29.3 °F 35% 29.83 in 10.0 mi SSW 6.9 mph - N/A   Clear
4:15 AM 56.8 °F 29.3 °F 35% 29.83 in 10.0 mi SSW 8.1 mph - N/A   Clear
4:35 AM 56.8 °F 30.0 °F 36% 29.82 in 10.0 mi SSW 8.1 mph - N/A   Clear
4:55 AM 56.3 °F 31.1 °F 38% 29.82 in 10.0 mi SSW 8.1 mph - N/A   Clear
5:15 AM 56.7 °F 31.6 °F 39% 29.82 in 10.0 mi SSW 9.2 mph - N/A   Clear
5:35 AM 56.3 °F 32.0 °F 40% 29.82 in 10.0 mi SSW 9.2 mph - N/A   Clear
5:55 AM 57.2 °F 32.4 °F 39% 29.82 in 10.0 mi SSW 10.4 mph - N/A   Clear
6:15 AM 56.8 °F 32.5 °F 40% 29.82 in 10.0 mi SSW 9.2 mph - N/A   Clear
6:35 AM 56.3 °F 32.9 °F 41% 29.83 in 10.0 mi SSW 8.1 mph - N/A   Clear
6:55 AM 54.9 °F 33.1 °F 44% 29.83 in 10.0 mi SSW 8.1 mph - N/A   Clear
7:15 AM 55.4 °F 33.4 °F 43% 29.83 in 10.0 mi SSW 9.2 mph - N/A   Clear
7:35 AM 54.0 °F 33.6 °F 46% 29.83 in 10.0 mi SSW 5.8 mph - N/A   Clear
7:55 AM 52.7 °F 33.4 °F 48% 29.83 in 10.0 mi SSW 9.2 mph - N/A   Clear
8:15 AM 52.7 °F 34.2 °F 49% 29.83 in 10.0 mi SSW 9.2 mph - N/A   Clear
8:35 AM 55.0 °F 34.7 °F 46% 29.82 in 10.0 mi SSW 10.4 mph - N/A   Clear
8:55 AM 57.4 °F 34.9 °F 43% 29.83 in 10.0 mi SSW 8.1 mph - N/A   Clear
9:15 AM 60.3 °F 35.4 °F 39% 29.83 in 10.0 mi SW 9.2 mph - N/A   Clear
9:35 AM 63.1 °F 36.5 °F 37% 29.83 in 10.0 mi SSW 9.2 mph - N/A   Clear
9:55 AM 66.2 °F 37.8 °F 35% 29.84 in 10.0 mi SSW 8.1 mph - N/A   Clear
10:15 AM 70.2 °F 39.6 °F 33% 29.84 in 10.0 mi WSW 8.1 mph - N/A   Clear
10:35 AM 72.7 °F 41.5 °F 32% 29.84 in 10.0 mi SW 12.7 mph 18.4 mph N/A   Clear
10:55 AM 75.4 °F 43.5 °F 32% 29.83 in 10.0 mi WSW 16.1 mph 21.9 mph N/A   Clear
11:15 AM 77.2 °F 44.2 °F 31% 29.82 in 10.0 mi WSW 16.1 mph 25.3 mph N/A   Clear
11:35 AM 77.9 °F 44.2 °F 30% 29.82 in 10.0 mi WSW 17.3 mph 24.2 mph N/A   Clear
11:55 AM 78.3 °F 43.7 °F 29% 29.81 in 10.0 mi SW 17.3 mph 24.2 mph N/A   Clear
12:15 PM 79.7 °F 44.1 °F 28% 29.81 in 10.0 mi SW 12.7 mph 19.6 mph N/A   Clear
12:35 PM 80.8 °F 43.2 °F 26% 29.80 in 10.0 mi SW 21.9 mph 26.5 mph N/A   Clear
12:50 PM 80.6 °F 41.7 °F 25% 29.80 in 10.0 mi WSW 20.7 mph 33.4 mph N/A   Clear
1:15 PM 81.7 °F 42.6 °F 25% 29.78 in 10.0 mi WSW 17.3 mph 32.2 mph N/A   Clear
1:35 PM 82.6 °F 43.3 °F 25% 29.77 in 10.0 mi WSW 18.4 mph 28.8 mph N/A   Clear
1:55 PM 82.9 °F 42.4 °F 24% 29.76 in 10.0 mi WSW 26.5 mph 35.7 mph N/A   Clear
2:15 PM 83.5 °F 42.1 °F 23% 29.74 in 10.0 mi WSW 20.7 mph 31.1 mph N/A   Clear
2:35 PM 83.8 °F 41.2 °F 22% 29.73 in 10.0 mi WSW 27.6 mph 34.5 mph N/A   Clear
2:55 PM 84.2 °F 40.3 °F 21% 29.73 in 10.0 mi West 20.7 mph 34.5 mph N/A   Clear
3:15 PM 84.2 °F 39.4 °F 20% 29.73 in 10.0 mi West 18.4 mph 33.4 mph N/A   Clear
3:35 PM 84.9 °F 41.0 °F 21% 29.71 in 10.0 mi West 21.9 mph 29.9 mph N/A   Clear
3:55 PM 84.4 °F 37.2 °F 19% 29.71 in 10.0 mi West 18.4 mph 36.8 mph N/A   Clear
4:15 PM 84.2 °F 39.6 °F 21% 29.71 in 10.0 mi WSW 24.2 mph 35.7 mph N/A   Clear
4:35 PM 84.2 °F 37.9 °F 19% 29.71 in 10.0 mi West 25.3 mph 33.4 mph N/A   Clear
4:55 PM 84.7 °F 35.1 °F 17% 29.71 in 10.0 mi WSW 16.1 mph 28.8 mph N/A   Clear
5:15 PM 83.7 °F 34.2 °F 17% 29.71 in 10.0 mi WSW 23.0 mph 28.8 mph N/A   Clear
5:35 PM 83.3 °F 34.2 °F 17% 29.71 in 10.0 mi WSW 20.7 mph 25.3 mph N/A   Clear
5:55 PM 82.4 °F 34.5 °F 18% 29.71 in 10.0 mi WSW 15.0 mph 24.2 mph N/A   Clear
6:15 PM 81.5 °F 35.6 °F 19% 29.71 in 10.0 mi WSW 20.7 mph 25.3 mph N/A   Clear
6:35 PM 80.4 °F 35.4 °F 20% 29.71 in 10.0 mi WSW 13.8 mph 23.0 mph N/A   Clear
6:55 PM 79.0 °F 35.2 °F 21% 29.72 in 10.0 mi WSW 12.7 mph 18.4 mph N/A   Clear
7:15 PM 77.2 °F 34.9 °F 22% 29.73 in 10.0 mi West 12.7 mph 17.3 mph N/A   Clear
7:35 PM 75.9 °F 34.7 °F 22% 29.75 in 10.0 mi West 9.2 mph - N/A   Clear
7:55 PM 73.0 °F 34.7 °F 25% 29.75 in 10.0 mi WSW 8.1 mph - N/A   Clear
8:15 PM 70.9 °F 32.7 °F 24% 29.76 in 10.0 mi West 9.2 mph - N/A   Clear
8:35 PM 72.9 °F 27.7 °F 19% 29.77 in 10.0 mi West 12.7 mph 19.6 mph N/A   Clear
8:55 PM 71.1 °F 27.1 °F 19% 29.79 in 10.0 mi WNW 10.4 mph - N/A   Clear
9:15 PM 69.1 °F 27.5 °F 21% 29.80 in 10.0 mi West 8.1 mph - N/A   Clear
9:35 PM 67.5 °F 27.9 °F 23% 29.81 in 10.0 mi West 6.9 mph - N/A   Clear
9:55 PM 64.4 °F 29.1 °F 27% 29.82 in 10.0 mi West 4.6 mph - N/A   Clear
10:15 PM 63.0 °F 29.1 °F 28% 29.82 in 10.0 mi West 5.8 mph - N/A   Clear
10:35 PM 62.6 °F 27.7 °F 27% 29.84 in 10.0 mi NW 8.1 mph - N/A   Clear
10:55 PM 61.5 °F 26.6 °F 27% 29.86 in 10.0 mi NNW 12.7 mph - N/A   Clear
11:15 PM 60.1 °F 23.9 °F 25% 29.88 in 10.0 mi North 11.5 mph - N/A   Clear
11:35 PM 58.8 °F 22.1 °F 24% 29.89 in 10.0 mi North 8.1 mph - N/A   Clear
11:55 PM 58.1 °F 19.4 °F 22% 29.89 in 10.0 mi NNW 8.1 mph - N/A   Clear